Location: Observatoire
(46.1952°N, 5.3391°E)
Time: 16:49:32
(UTC+01:00)

Injun/Solrad 3 - Pass Details

Date: 17 February 2026
Orbit: 872 x 984 km, 66.8° (Epoch: 7 March)

Event Time Altitude Azimuth Distance (km) Brightness Sun altitude
Rises 20:50:33 0° 325° (NW) 3,571 11.6 -28.7°
Reaches altitude 10° 20:53:03 10° 324° (NW) 2,641 10.8 -29.1°
Maximum altitude 20:59:12 76° 240° (WSW) 981 7.9 -30.2°
Enters shadow 20:59:25 75° 219° (SW) 985 7.9 -30.2°
